Regional Weather Roundup
Issued by NWS Cleveland, OH

Home | Current Version | Previous Version | Text Only | Print | Product List | Glossary Off
Versions: 1 2 3 4 5 6 7 8 9 10 11 12 13 14 15 16 17 18 19 20 21 22 23 24 25 26 27 28 29 30 31 32 33 34 35 36 37 38 39 40 41 42 43 44 45 46 47 48 49 50

000
ASUS41 KCLE 271610
RWRCLE
OHIO REGIONAL WEATHER ROUNDUP
NATIONAL WEATHER SERVICE WILMINGTON, OH
1100 AM EST FRI FEB 27 2015

NOTE: "FAIR" INDICATES FEW OR NO CLOUDS BELOW 12,000 FEET WITH NO
SIGNIFICANT WEATHER AND/OR OBSTRUCTIONS TO VISIBILITY.

OHZ001>008-015>018-024>027-034-035-043-044-271700-
   NORTHWEST OHIO

CITY           SKY/WX    TMP DP  RH WIND       PRES   REMARKS
DEFIANCE       SUNNY      7  -3  64 NW5       30.57R WCI  -2
FINDLAY        SUNNY      8   3  80 S3        30.54R
TOLEDO EXPRESS FLURRIES   7  -4  60 NW6       30.56R WCI  -3
TOLEDO EXEC    SUNNY      8  -2  63 SW7       30.57R WCI  -3
LIMA           SUNNY     10   2  69 S3        30.53R
$$

OHZ009>014-019>023-028>033-038-089-271700-
   NORTHEAST OHIO

CITY           SKY/WX    TMP DP  RH WIND       PRES   REMARKS
CLE-HOPKINS    MOSUNNY   11   0  61 SW6       30.57R WCI   1
CLE-LAKEFRONT  SUNNY      8   0  69 W5        30.56R WCI   0
CUY CO. ARPT   MOSUNNY   14   1  57 CALM      30.53S
LORAIN-ELYRIA  SUNNY      7   0  73 SW6       30.55R WCI  -3
ASHTABULA      PTSUNNY    7  -3  64 W5        30.51R WCI  -2
AKRON-CANTON   MOSUNNY    9  -1  64 CALM      30.49R
WOOSTER        SUNNY      7   0  73 CALM      30.52R
MANSFIELD      PTSUNNY    9  -1  64 CALM      30.49R
YOUNGSTOWN     MOSUNNY    8  -2  63 NW6       30.49R WCI  -2
$$

OHZ042-051>053-060>062-070>072-077>081-271700-
  SOUTHWEST OHIO

CITY           SKY/WX    TMP DP  RH WIND       PRES   REMARKS
CINC-COVINGTON SUNNY     16   1  51 CALM      30.57R
CINC-LUNKEN    SUNNY     17   1  49 VRB5      30.61R WCI  10
HAMILTON       SUNNY     15   1  53 VRB3      30.61R
DAYTON         SUNNY     13   1  59 CALM      30.55R
WRIGHT-PAT AFB SUNNY     13   3  64 NE2       30.56R
DAYTON GENERAL SUNNY     13   3  64 NW5       30.55R WCI   5
WILMINGTON     MOSUNNY   15   6  67 SW5       30.53R WCI   8
$$

OHZ036-037-039>041-045>050-054>059-063>069-073>076-082>088-271700-
  CENTRAL AND SOUTHEAST OHIO

CITY           SKY/WX    TMP DP  RH WIND       PRES   REMARKS
COLUMBUS       FLURRIES  13   5  70 CALM      30.55R
OSU AIRPORT    PTSUNNY   13   4  67 NW8       30.54R WCI   2
BOLTON FIELD   LGT SNOW  14   7  73 CALM      30.54R
RICKENBACK AFB PTSUNNY   12   5  73 SW5       30.56R WCI   5
NEWARK         CLOUDY    13   4  67 CALM      30.54R
MARION         CLOUDY     9   3  77 CALM      30.53R HAZE
LANCASTER      CLOUDY    14   7  73 N3        30.56R
ZANESVILLE     SUNNY     11  -2  56 CALM      30.54R
NEW PHILLY     SUNNY     12  -2  53 CALM      30.54R
$$


USA.gov is the U.S. government's official web portal to all federal, state and local government web resources and services.